GW7170 Weather Reports


time (UTC)temp
C
wind
direction
speed
KPH
gust
KPH
rain 1hr
cm
rain 24hr
cm
rain mn
cm
humidity
%
barometer
mb
20260507103117 6 271 12.9 12.9 0.00 0.00 0.00 51 1011.7
20260507102117 6 271 12.9 12.9 0.00 0.00 0.00 51 1011.7
20260507101137 6 272 12.9 12.9 0.00 0.00 0.00 51 1011.7
20260507100135 7 271 12.9 12.9 0.00 0.00 0.00 50 1011.7
20260507095115 6 271 12.9 12.9 0.00 0.00 0.00 51 1011.7
20260507094115 6 271 12.9 12.9 0.00 0.00 0.00 50 1011.7
20260507093118 6 272 12.9 12.9 0.00 0.00 0.00 49 1011.7
20260507092116 7 272 14.5 14.5 0.00 0.00 0.00 48 1012.8
20260507091115 7 272 11.3 11.3 0.00 0.00 0.00 47 1012.8
20260507090116 7 274 12.9 12.9 0.00 0.00 0.00 47 1012.8
20260507085116 8 272 14.5 14.5 0.00 0.00 0.00 48 1012.8
20260507084116 8 272 14.5 14.5 0.00 0.00 0.00 48 1012.8
20260507083116 8 272 12.9 14.5 0.00 0.00 0.00 46 1013.8
20260507082116 8 272 14.5 14.5 0.00 0.00 0.00 46 1013.8
20260507081116 7 273 14.5 14.5 0.00 0.00 0.00 45 1013.2
20260507080115 7 273 11.3 12.9 0.00 0.00 0.00 45 1013.8
20260507075116 7 273 11.3 11.3 0.00 0.00 0.00 45 1013.8
20260507074116 7 272 11.3 11.3 0.00 0.00 0.00 46 1013.8
20260507073116 7 272 11.3 11.3 0.00 0.00 0.00 48 1013.8
20260507072136 6 270 9.7 9.7 0.00 0.00 0.00 50 1013.8
20260507071136 6 270 9.7 11.3 0.00 0.00 0.00 54 1013.8
20260507070115 5 270 9.7 9.7 0.00 0.00 0.00 57 1013.8
20260507065116 5 269 11.3 11.3 0.00 0.00 0.00 58 1013.8
20260507064116 5 257 11.3 11.3 0.00 0.00 0.00 57 1013.8
20260507063116 5 270 9.7 9.7 0.00 0.00 0.00 58 1013.8
20260507062117 5 270 12.9 12.9 0.00 0.00 0.00 58 1013.8
20260507061117 5 276 12.9 12.9 0.00 0.00 0.00 59 1013.8
20260507060135 5 270 11.3 11.3 0.00 0.00 0.00 60 1013.8
20260507055115 5 270 11.3 12.9 0.00 0.00 0.00 60 1013.8
20260507054115 5 270 11.3 12.9 0.00 0.00 0.00 60 1014.8
20260507053115 5 270 11.3 12.9 0.00 0.00 0.00 64 1014.8
20260507052115 5 277 11.3 11.3 0.00 0.00 0.00 62 1014.8
20260507051116 5 270 9.7 11.3 0.00 0.00 0.00 60 1014.8
20260507050115 5 270 11.3 11.3 0.00 0.00 0.00 57 1014.8
20260507045136 5 256 11.3 11.3 0.00 0.00 0.00 59 1014.8
20260507044157 5 260 11.3 11.3 0.00 0.00 0.00 56 1014.8
20260507043115 5 270 11.3 11.3 0.00 0.00 0.00 54 1014.8
20260507042116 6 270 11.3 11.3 0.00 0.00 0.00 52 1014.8
20260507041116 5 270 11.3 11.3 0.00 0.00 0.00 56 1014.8
20260507040115 6 270 11.3 11.3 0.00 0.00 0.00 55 1014.8
20260507035116 6 270 11.3 11.3 0.00 0.00 0.00 54 1014.8
20260507034116 6 270 11.3 11.3 0.00 0.00 0.00 54 1014.8
20260507033117 6 270 11.3 11.3 0.00 0.00 0.00 54 1014.8
20260507032115 6 270 11.3 11.3 0.00 0.00 0.00 53 1014.8
20260507031116 6 270 11.3 11.3 0.00 0.00 0.00 52 1014.8
20260507030117 6 271 11.3 12.9 0.00 0.00 0.00 49 1014.8
20260507025116 7 270 12.9 12.9 0.00 0.00 0.00 47 1014.8
20260507024117 7 272 11.3 12.9 0.00 0.00 0.00 45 1014.8
20260507023135 7 273 12.9 14.5 0.00 0.00 0.00 45 1014.8
20260507022115 7 273 14.5 14.5 0.00 0.00 0.00 44 1014.8
20260507021116 8 274 14.5 14.5 0.00 0.00 0.00 44 1014.8
20260507020115 8 276 14.5 14.5 0.00 0.00 0.00 40 1014.8
20260507015136 9 275 14.5 14.5 0.00 0.00 0.00 38 1014.8
20260507014115 10 275 12.9 14.5 0.00 0.00 0.00 36 1014.8
20260507013135 10 275 11.3 11.3 0.00 0.00 0.00 33 1014.8
20260507012116 11 276 11.3 11.3 0.00 0.00 0.00 32 1014.8
20260507010117 13 275 11.3 12.9 0.00 0.00 0.00 28 1014.8
20260507005156 15 275 11.3 11.3 0.00 0.00 0.00 27 1014.8
20260507004116 15 275 12.9 14.5 0.00 0.00 0.00 26 1014.8
20260507003117 15 277 12.9 16.1 0.00 0.00 0.00 25 1014.8
20260507002117 17 279 9.7 12.9 0.00 0.00 0.00 24 1014.8
20260507001117 17 276 11.3 16.1 0.00 0.00 0.00 23 1014.8
20260507000115 16 276 11.3 14.5 0.00 0.00 0.00 25 1015.5
20260506235116 14 276 11.3 14.5 0.00 0.00 0.00 28 1015.5
20260506234116 14 277 12.9 17.7 0.00 0.00 0.00 27 1015.7
20260506233115 15 278 11.3 14.5 0.00 0.00 0.00 27 1015.9
20260506232116 15 277 12.9 14.5 0.00 0.00 0.00 27 1015.9
20260506231117 14 275 11.3 14.5 0.00 0.00 0.00 27 1015.9
20260506230116 15 279 11.3 14.5 0.00 0.00 0.00 27 1015.9
20260506225116 18 278 16.1 20.9 0.00 0.00 0.00 23 1015.9
20260506224137 19 282 9.7 20.9 0.00 0.00 0.00 24 1015.9
20260506223137 18 279 12.9 22.5 0.00 0.00 0.00 23 1015.9
20260506222116 18 279 11.3 16.1 0.00 0.00 0.00 23 1015.9
20260506221117 17 285 8.0 12.9 0.00 0.00 0.00 24 1015.9
20260506220117 16 283 11.3 16.1 0.00 0.00 0.00 27 1015.9
20260506215136 20 285 8.0 14.5 0.00 0.00 0.00 23 1015.9
20260506214236 16 276 16.1 20.9 0.00 0.00 0.00 25 1015.9
20260506213116 16 279 11.3 14.5 0.00 0.00 0.00 26 1015.9
20260506212117 15 281 12.9 17.7 0.00 0.00 0.00 27 1015.9
20260506211116 18 279 12.9 16.1 0.00 0.00 0.00 25 1015.9
20260506210116 17 285 8.0 12.9 0.00 0.00 0.00 26 1015.9
20260506205117 17 292 9.7 16.1 0.00 0.00 0.00 25 1015.9
20260506204117 18 291 3.2 8.0 0.00 0.00 0.00 25 1015.9
20260506203117 17 279 12.9 14.5 0.00 0.00 0.00 26 1015.9
20260506202118 17 282 11.3 14.5 0.00 0.00 0.00 26 1016.2
20260506201116 13 279 12.9 16.1 0.00 0.00 0.00 29 1016.9
20260506200135 16 281 12.9 16.1 0.00 0.00 0.00 25 1016.9
20260506195117 17 283 9.7 12.9 0.00 0.00 0.00 28 1016.9
20260506194117 16 279 17.7 22.5 0.00 0.00 0.00 27 1016.9
20260506193116 15 278 12.9 17.7 0.00 0.00 0.00 30 1016.9
20260506192117 15 279 12.9 16.1 0.00 0.00 0.00 28 1016.9
20260506191115 16 282 14.5 19.3 0.00 0.00 0.00 28 1016.9
20260506190118 15 280 16.1 20.9 0.00 0.00 0.00 29 1016.9
20260506185115 15 281 12.9 14.5 0.00 0.00 0.00 29 1016.9
20260506184116 15 281 12.9 14.5 0.00 0.00 0.00 29 1016.9
20260506183117 15 278 12.9 16.1 0.00 0.00 0.00 28 1016.9
20260506182115 14 279 11.3 12.9 0.00 0.00 0.00 31 1016.9
20260506181156 13 277 12.9 17.7 0.00 0.00 0.00 30 1016.9
20260506180115 13 280 9.7 11.3 0.00 0.00 0.00 30 1016.9
20260506175116 12 278 12.9 16.1 0.00 0.00 0.00 30 1016.9
20260506174135 13 278 16.1 17.7 0.00 0.00 0.00 29 1017.0
20260506173116 13 279 12.9 17.7 0.00 0.00 0.00 31 1017.9
20260506172137 13 278 14.5 17.7 0.00 0.00 0.00 30 1017.9
20260506171116 13 279 11.3 12.9 0.00 0.00 0.00 31 1017.9
20260506170115 12 279 12.9 14.5 0.00 0.00 0.00 32 1017.9
20260506165116 12 278 14.5 17.7 0.00 0.00 0.00 34 1017.9
20260506164117 12 278 12.9 16.1 0.00 0.00 0.00 33 1017.9
20260506163117 12 279 12.9 14.5 0.00 0.00 0.00 32 1017.9
20260506162120 12 279 11.3 14.5 0.00 0.00 0.00 33 1017.9
20260506161116 12 279 12.9 12.9 0.00 0.00 0.00 33 1017.9
20260506160126 12 278 11.3 12.9 0.00 0.00 0.00 34 1017.9
20260506155116 13 279 12.9 14.5 0.00 0.00 0.00 32 1017.9
20260506154116 12 280 14.5 16.1 0.00 0.00 0.00 33 1017.9
20260506153115 12 280 11.3 12.9 0.00 0.00 0.00 33 1017.9
20260506152116 14 279 16.1 17.7 0.00 0.00 0.00 31 1017.8
20260506151116 11 280 12.9 14.5 0.00 0.00 0.00 33 1017.9
20260506150120 14 282 12.9 16.1 0.00 0.00 0.00 32 1017.9
20260506145137 13 278 11.3 12.9 0.00 0.00 0.00 34 1017.5
20260506144135 13 281 11.3 16.1 0.00 0.00 0.00 34 1017.9
20260506143116 14 281 11.3 12.9 0.00 0.00 0.00 33 1017.9
20260506142115 14 280 12.9 14.5 0.00 0.00 0.00 33 1017.9
20260506141115 13 280 12.9 12.9 0.00 0.00 0.00 34 1016.9
20260506140117 13 278 12.9 14.5 0.00 0.00 0.00 34 1016.9
20260506135116 13 279 12.9 12.9 0.00 0.00 0.00 35 1016.9
20260506134116 12 277 12.9 12.9 0.00 0.00 0.00 37 1016.9
20260506133116 11 275 14.5 14.5 0.00 0.00 0.00 40 1016.9
20260506132117 11 274 14.5 14.5 0.00 0.00 0.00 42 1016.9
20260506131137 10 274 14.5 14.5 0.00 0.00 0.00 44 1016.9
20260506130116 10 273 14.5 14.5 0.00 0.00 0.00 47 1016.9
20260506125115 9 275 14.5 14.5 0.00 0.00 0.00 49 1016.9
20260506124115 8 270 11.3 12.9 0.00 0.00 0.00 52 1016.9
20260506123115 6 268 8.0 9.7 0.00 0.00 0.00 60 1016.9
20260506122115 5 257 8.0 8.0 0.00 0.00 0.00 62 1016.9
20260506121116 3 275 3.2 4.8 0.00 0.00 0.00 67 1016.9
20260506120117 3 216 3.2 3.2 0.00 0.00 0.00 68 1015.9
20260506115115 3 225 3.2 3.2 0.00 0.00 0.00 69 1015.9
20260506114117 3 219 3.2 3.2 0.00 0.00 0.00 69 1015.9
20260506113135 3 158 1.6 3.2 0.00 0.00 0.00 69 1015.9
20260506112156 3 0.0 0.0 0.00 0.00 0.00 70 1015.9
20260506111117 3 284 3.2 3.2 0.00 0.00 0.00 68 1015.9
20260506110117 3 281 3.2 3.2 0.00 0.00 0.00 67 1015.9
20260506105115 3 238 4.8 4.8 0.00 0.00 0.00 66 1014.8
20260506104116 3 243 4.8 4.8 0.00 0.00 0.00 66 1014.8